Hereford, TX

4:15 PM CDT on April 28, 2017 (GMT -0500)
Hereford Municipal

Weather History for KHRX - January, 2013

Change the Weather History Date:

Monday, January 7, 2013

  Actual Average (KCVN) Record (KCVN)
Temperature  
Mean Temperature 36 °F -  
Max Temperature 50 °F 47 °F 73 °F (1969)
Min Temperature 21 °F 21 °F -2 °F (1913)
Degree Days  
Heating Degree Days 30    
Moisture  
Dew Point 21 °F    
Average Humidity 64    
Maximum Humidity 86    
Minimum Humidity 34    
Precipitation  
Precipitation 0.00 in - - ()
Sea Level Pressure  
Sea Level Pressure 30.10 in    
Wind  
Wind Speed - (North)    
Max Wind Speed -    
Max Gust Speed -    
Visibility 10 miles    
Events      
Averages and records for this station are not official NWS values.
T = Trace of Precipitation, MM = Missing Value Source: NWS Daily Summary

Daily Weather History Graph

Daily Weather History Graph

Search for Another Location

Airport or City:

Trip Planner

Search our weather history database for the weather conditions in past years. The results will help you decide how hot, cold, wet, or windy it might be!

Date:

Astronomy

Jan. 07, 2013 Rise Set
Actual Time 7:57 AM CST 5:54 PM CST
Civil Twilight 7:29 AM CST 6:22 PM CST
Nautical Twilight 6:58 AM CST 6:53 PM CST
Astronomical Twilight 6:27 AM CST 7:23 PM CST
Moon 3:26 AM CST (1/7) 2:04 PM CST (1/7)
Length of Visible Light 10h 52m
Length of Day
9h 56m
Waning Crescent, 22% of the Moon is Illuminated
Jan 7
Waning Crescent
Jan 11
New
Jan 18
First Quarter
Jan 26
Full
Feb 3
Last Quarter

Hourly Weather History & Observations

Time (CST) Temp. Dew Point Humidity Pressure Visibility Wind Dir Wind Speed Gust Speed Precip Events Conditions
12:15 AM 30.2 °F 21.2 °F 69% 30.22 in 10.0 mi North - - N/A   Clear
12:35 AM 30.2 °F 21.2 °F 69% 30.21 in 10.0 mi North - - N/A   Clear
12:55 AM 28.4 °F 19.4 °F 69% 30.21 in 10.0 mi North - - N/A   Clear
1:15 AM 26.6 °F 19.4 °F 74% 30.21 in 10.0 mi North - - N/A   Clear
1:35 AM 24.8 °F 19.4 °F 80% 30.21 in 10.0 mi North - - N/A   Clear
1:55 AM 28.4 °F 21.2 °F 74% 30.21 in 10.0 mi North - - N/A   Clear
2:15 AM 26.6 °F 19.4 °F 74% 30.20 in 10.0 mi North - - N/A   Clear
2:35 AM 26.6 °F 19.4 °F 74% 30.20 in 10.0 mi North - - N/A   Clear
2:55 AM 26.6 °F 19.4 °F 74% 30.20 in 10.0 mi North - - N/A   Clear
3:15 AM 23.0 °F 19.4 °F 86% 30.19 in 10.0 mi North - - N/A   Clear
3:35 AM 23.0 °F 19.4 °F 86% 30.19 in 10.0 mi North - - N/A   Clear
3:55 AM 23.0 °F 19.4 °F 86% 30.19 in 10.0 mi North - - N/A   Clear
4:15 AM 23.0 °F 17.6 °F 80% 30.19 in 10.0 mi North - - N/A   Clear
4:35 AM 23.0 °F 17.6 °F 80% 30.18 in 10.0 mi North - - N/A   Clear
4:55 AM 23.0 °F 17.6 °F 80% 30.17 in 10.0 mi North - - N/A   Clear
5:15 AM 23.0 °F 17.6 °F 80% 30.17 in 10.0 mi North - - N/A   Clear
5:35 AM 21.2 °F 17.6 °F 86% 30.16 in 10.0 mi North - - N/A   Clear
5:55 AM 21.2 °F 17.6 °F 86% 30.15 in 10.0 mi North - - N/A   Clear
6:35 AM 23.0 °F 17.6 °F 80% 30.15 in 10.0 mi North - - N/A   Clear
6:55 AM 23.0 °F 19.4 °F 86% 30.15 in 10.0 mi North - - N/A   Clear
7:15 AM 23.0 °F 19.4 °F 86% 30.15 in 10.0 mi North - - N/A   Clear
7:35 AM 23.0 °F 19.4 °F 86% 30.15 in 10.0 mi North - - N/A   Clear
7:55 AM 23.0 °F 19.4 °F 86% 30.15 in 10.0 mi North - - N/A   Clear
8:15 AM 23.0 °F 19.4 °F 86% 30.16 in 10.0 mi North - - N/A   Clear
8:35 AM 24.8 °F 21.2 °F 86% 30.17 in 10.0 mi North - - N/A   Clear
8:55 AM 26.6 °F 21.2 °F 80% 30.17 in 10.0 mi North - - N/A   Clear
9:15 AM 28.4 °F 23.0 °F 80% 30.17 in 10.0 mi North - - N/A   Clear
9:35 AM 30.2 °F 23.0 °F 75% 30.17 in 10.0 mi North - - N/A   Clear
9:55 AM 32.0 °F 24.8 °F 75% 30.17 in 10.0 mi North - - N/A   Clear
10:15 AM 33.8 °F 23.0 °F 65% 30.17 in 10.0 mi North - - N/A   Clear
10:35 AM 35.6 °F 23.0 °F 60% 30.17 in 10.0 mi North - - N/A   Clear
10:55 AM 37.4 °F 23.0 °F 56% 30.17 in 10.0 mi North - - N/A   Clear
11:15 AM 37.4 °F 23.0 °F 56% 30.17 in 10.0 mi North - - N/A   Clear
11:35 AM 39.2 °F 23.0 °F 52% 30.16 in 10.0 mi North - - N/A   Clear
11:55 AM 41.0 °F 24.8 °F 53% 30.14 in 10.0 mi North - - N/A   Clear
12:15 PM 41.0 °F 24.8 °F 53% 30.13 in 10.0 mi North - - N/A   Clear
12:35 PM 42.8 °F 23.0 °F 46% 30.10 in 10.0 mi North - - N/A   Clear
12:55 PM 44.6 °F 23.0 °F 43% 30.09 in 10.0 mi North - - N/A   Clear
1:15 PM 42.8 °F 24.8 °F 49% 30.07 in 10.0 mi North - - N/A   Clear
1:35 PM 44.6 °F 24.8 °F 46% 30.06 in 10.0 mi North - - N/A   Clear
1:55 PM 44.6 °F 23.0 °F 43% 30.04 in 10.0 mi North - - N/A   Clear
2:15 PM 44.6 °F 24.8 °F 46% 30.04 in 10.0 mi North - - N/A   Clear
2:55 PM 48.2 °F 24.8 °F 40% 30.02 in 10.0 mi North - - N/A   Clear
3:15 PM 46.4 °F 24.8 °F 43% 30.02 in 10.0 mi North - - N/A   Clear
3:35 PM 50.0 °F 23.0 °F 35% 30.02 in 10.0 mi North - - N/A   Clear
3:55 PM 48.2 °F 23.0 °F 37% 30.02 in 10.0 mi North - - N/A   Clear
4:15 PM 48.2 °F 21.2 °F 34% 30.00 in 10.0 mi North - - N/A   Clear
4:35 PM 48.2 °F 21.2 °F 34% 30.00 in 10.0 mi North - - N/A   Clear
5:15 PM 46.4 °F 21.2 °F 37% 29.99 in 10.0 mi North - - N/A   Clear
5:35 PM 46.4 °F 21.2 °F 37% 30.00 in 10.0 mi North - - N/A   Clear
5:55 PM 41.0 °F 21.2 °F 45% 30.00 in 10.0 mi North - - N/A   Clear
6:15 PM 39.2 °F 23.0 °F 52% 30.02 in 10.0 mi North - - N/A   Clear
6:35 PM 37.4 °F 23.0 °F 56% 30.02 in 10.0 mi North - - N/A   Clear
6:55 PM 35.6 °F 23.0 °F 60% 30.02 in 10.0 mi North - - N/A   Clear
7:15 PM 35.6 °F 23.0 °F 60% 30.02 in 10.0 mi North - - N/A   Clear
7:35 PM 35.6 °F 23.0 °F 60% 30.00 in 10.0 mi North - - N/A   Clear
7:55 PM 33.8 °F 23.0 °F 65% 30.00 in 10.0 mi North - - N/A   Clear
8:15 PM 33.8 °F 23.0 °F 65% 30.01 in 10.0 mi North - - N/A   Clear
8:35 PM 33.8 °F 23.0 °F 65% 30.00 in 10.0 mi North - - N/A   Clear
8:55 PM 33.8 °F 23.0 °F 65% 30.02 in 10.0 mi North - - N/A   Clear
9:15 PM 33.8 °F 23.0 °F 65% 30.00 in 10.0 mi North - - N/A   Clear
9:35 PM 33.8 °F 21.2 °F 60% 29.99 in 10.0 mi North - - N/A   Clear
9:55 PM 33.8 °F 21.2 °F 60% 30.00 in 10.0 mi North - - N/A   Clear
10:15 PM 32.0 °F 21.2 °F 64% 30.00 in 10.0 mi North - - N/A   Clear
10:35 PM 32.0 °F 21.2 °F 64% 29.99 in 10.0 mi North - - N/A   Clear
10:55 PM 33.8 °F 21.2 °F 60% 29.99 in 10.0 mi North - - N/A   Clear
11:15 PM 32.0 °F 21.2 °F 64% 29.98 in 10.0 mi North - - N/A   Clear
11:35 PM 32.0 °F 21.2 °F 64% 29.98 in 10.0 mi North - - N/A   Clear
11:55 PM 32.0 °F 21.2 °F 64% 29.98 in 10.0 mi North - - N/A   Clear